Location: Burgwalden
(48.2830°N, 10.7576°E)
Time: 02:25:20
(UTC+00:00)

SL-16 R/B - Pass Details

Date: 26 September 2023
Orbit: 985 x 1006 km, 99.7° (Epoch: 04 December)

Event Time Altitude Azimuth Distance (km) Brightness Sun altitude
Exits shadow 01:28:55 49° 351° (N) 1,262 3.1 -34.0°
Drops below altitude 10° 01:33:19 10° 346° (NNW) 2,765 5.2 -33.4°
Sets 01:35:48 0° 345° (NNW) 3,715 5.9 -33.1°
